www.pogodaiklimat.ru

Погода и климат >> Архив погоды >> Мексика >> Toluca


ПОГОДА в Toluca

  • Прогноз погоды в Toluca
  • Монитор погоды в Toluca
  • Климат города

АРХИВ ПОГОДЫ в Toluca

Время (UTC), дата Ветер
(напр.,м/с)
 
Видим.   Явления Облачность Т
(С)
Тd
(С)
f
(%)
Тe
(С)
Тes
(С)
Комфортность P
(гПа)
Po
(гПа)
Тmin
(С)
Tmax
(С)
R
(мм)
R24
(мм)
S
(см)
21 20.06 СВ 3
{8}
25 км мгла {туман} 8/5 800 м
[Cb calv Ac und]
+21.0 +1.7 28 +22 +25 комфорт 1006.0 736.2
00 21.06 СВ 2 25 км мгла {туман} 9/6 600 м
[Cb calv Ac und]
+18.0 +4.0 39 +19 +19 1002.9 735.8 +6.7 +24.0
03 21.06 З 1 10 км 1/1 800 м
[Sc diur, vesp]
+13.8 +5.3 56 +14 +14 1004.6 737.7
06 21.06 Ю 1 10 км ясно +10.2 +4.6 68 +10 +10 1008.1 738.5 +6.7 +24.0
09 21.06 ЮВ 1 10 км ясно +7.7 +3.9 77 +7 +7 1010.9 737.4
12 21.06 Ю 2 25 км мгла {туман} ясно +5.3 +1.8 78 +3 +3 1013.3 737.1 +4.0 +24.0
15 21.06 СЗ 1 35 км ясно +15.7 +2.6 41 +17 +27 1015.4 737.8
18 21.06 С 3 30 км мгла {туман} 1/1 800 м
[Cu med, cong]
+22.0 +4.1 31 +22 +38 комфорт 1012.3 737.4 +3.7 +23.0
21 21.06 СЗ 3 30 км 5/5 800 м
[Cb calv]
+23.5 +3.5 27 +23 +30 комфорт 1006.1 735.9
00 22.06 С 1 30 км 6/5 600 м
[Cb calv Ac trans]
+21.8 +3.0 29 +22 +23 комфорт 1000.8 735.3 +3.7 +25.8
03 22.06 С 1 10 км 1/1 800 м
[Sc diur, vesp]
+16.6 +9.4 62 +18 +18 1000.5 736.4
06 22.06 Ю 1 10 км 3/1 600 м
[Sc diur, vesp Ac trans]
+12.7 +8.8 77 +13 +13 1004.0 737.7 +3.7 +25.8
09 22.06 ЮЗ 1 10 км 8/4 800 м
[Sc diur, vesp Ac und]
+10.6 +8.5 87 +10 +10 1006.4 737.0
12 22.06 З 1 10 км мгла {туман} 8/4 800 м
[Sc diur, vesp Ac und]
+8.2 +5.8 85 +7 +7 1009.9 736.9 +7.0 +25.8
15 22.06 З 1 10 км {туман} туман 8/8 800 м
[Cu med, cong]
+14.8 +9.6 71 +15 +17 1013.3 738.2
18 22.06 ЮЗ 2 18 км {туман} туман 5/5 800 м
[Cu med, cong]
+22.3 +9.4 44 +24 +35 комфорт 1010.7 737.6 +6.6 +23.1
21 22.06 С 2 25 км мгла {туман} 8/8 800 м
[Cb calv]
+25.6 +5.4 27 +25 +28 комфорт 1005.4 736.4
00 23.06 СЗ 2 25 км мгла {туман} 8/8 600 м
[Cb calv]
+21.6 +10.2 48 +23 +24 комфорт 1000.5 735.5 +6.6 +26.7
03 23.06 З 1 10 км 3/3 800 м
[Sc diur, vesp]
+15.7 +8.1 61 +16 +16 1001.2 737.0
06 23.06 Ю 1 10 км ясно +12.4 +8.2 76 +12 +12 1004.1 737.9 +6.6 +26.7
09 23.06 В 1 10 км зарница {гроза} 3/3 800 м
[Cb calv]
+9.8 +5.5 75 +9 +9 1006.8 737.1
12 23.06 Ю 1 10 км дымка {туман} 3/3 800 м
[Sc diur, vesp]
+7.2 +1.7 68 +7 +7 1010.8 737.0 +5.9 +26.7
15 23.06 ЮЗ 1 18 км {туман} туман 1/1 800 м
[Cu hum]
+15.4 +8.9 65 +16 +25 1013.6 738.0
18 23.06 З 1 30 км {туман} ясно +23.7 +3.1 26 +23 +48 комфорт 1010.6 737.5 +5.7 +24.3
21 23.06 С 3 30 км 1/1 800 м
[Cu hum]
+28.0 -3.1 13 +25 +37 комфорт 1003.8 735.7
00 24.06 С 4 30 км 1/1 600 м
[Cu hum]
+25.0 +0.2 20 +24 +25 комфорт 998.0 734.9 +5.7 +29.0
03 24.06 С 2 10 км ясно +18.4 +7.9 50 +19 +19 998.4 736.8
06 24.06 ЮВ 1 10 км ясно +14.6 +8.3 66 +15 +15 1000.9 737.5 +5.7 +29.0
09 24.06 З 1 10 км зарница {гроза} 5/5 800 м
[Cb calv]
+10.6 +6.2 74 +10 +10 1004.0 736.8
12 24.06 З 1 15 км мгла {туман} 9/4 800 м
[Sc diur, vesp Ac und Cs]
+9.9 +6.1 77 +10 +10 1008.8 737.2 +8.7 +29.0
15 24.06 СЗ 1 15 км мгла {туман} 9/0 2000 м
[Ac trans Cs]
+16.0 +9.4 65 +17 +25 1012.3 738.4
18 24.06 В 2 18 км {туман} туман 9/8 800 м
[Cu med, cong Ci]
+21.2 +9.1 46 +22 +26 комфорт 1010.9 738.3 +8.2 +21.8
21 24.06 ЮВ 2 20 км {гроза, дождь} 9/6 800 м
[Cb calv Ac trans Ci]
+20.9 +9.3 47 +23 +27 комфорт 1006.4 736.7 0.5
00 25.06 Ю 3 10 км слабый дождь {гроза} 10/10 600 м
[Cb calv]
+12.8 +10.1 84 +11 +11 1006.0 737.7 3
03 25.06 В 1 10 км {дождь, туман} 9/8 800 м
[Cb cap Ac inh]
+12.9 +9.4 79 +13 +13 1007.9 739.0 0.1
06 25.06 СВ 1 10 км 9/6 600 м
[Cb cap Ac und]
+12.5 +9.1 80 +13 +13 1011.2 739.9 0.1
09 25.06 ЮВ 2 10 км 9/8 800 м
[Cb calv Ac As]
+12.3 +8.9 80 +11 +11 1011.7 738.7
12 25.06 В 1 15 км 9/6 800 м
[Cb calv Ac cuf]
+12.1 +8.5 79 +12 +12 1013.0 738.7 +10.8 +22.0
15 25.06 В 3 20 км {туман} туман 9/5 800 м
[Cu Sc Ac und]
+14.4 +9.3 71 +14 +15 1014.6 740.0
18 25.06 ЮВ 4 25 км 10/10 800 м
[Cb calv]
+17.7 +9.0 57 +17 +17 1013.8 740.3 +10.7 +18.0
21 25.06 Ю 3 30 км 9/9 800 м
[Cb calv]
+18.0 +9.2 56 +18 +19 1010.9 739.2
00 26.06 Ю 4 30 км 9/9 600 м
[Cb calv]
+16.8 +8.0 56 +16 +16 1009.0 738.9 +10.7 +19.3
06 26.06 ЮВ 2 10 км 8/8 600 м
[Cb calv]
+13.5 +8.8 73 +13 +13 1011.9 740.5 +10.7 +19.3
09 26.06 ЮВ 2 10 км слабый дождь 10/5 800 м
[Cb cap As trans]
+11.8 +9.2 84 +11 +11 1012.3 739.9 2
12 26.06 ЮВ 1 10 км {дождь} 10/6 600 м
[Sc diur, vesp Ac und]
+11.3 +9.2 87 +11 +11 1013.3 739.4 3
15 26.06 ЮВ 3 30 км 10/6 800 м
[Sc diur, vesp Ac und]
+14.4 +8.6 68 +14 +14 1015.3 740.5
18 26.06 З 2 25 км {туман} 10/5 800 м
[Cu Sc Ac und]
+18.9 +9.4 54 +20 +23 1014.7 740.8 +9.6 +19.2
21 26.06 ЮВ 3 25 км 10/10 800 м
[Cb calv]
+19.7 +7.9 46 +21 +21 комфорт 1010.7 739.5
00 27.06 С 1 15 км 9/8 600 м
[Cb calv Ac trans]
+18.0 +9.4 57 +19 +19 1007.7 738.7 +9.6 +21.8
03 27.06 ЮВ 2 10 км слабый переохл. дождь (гололёд) {туман} 10/9 800 м
[Cb cap Ac As]
+12.9 +8.7 76 +12 +12 1009.2 740.0 5
06 27.06 штиль 0 50 км ?/? +11.4 +9.8 90 +11 +11 1011.3 740.4 24
09 27.06 Ю 1 10 км слабый дождь [диам. гололёда 80 мм] 10/6 800 м
[Cb cap As trans]
+11.4 +10.1 92 +11 +11 1012.2 739.3 1
12 27.06 СЗ 1 10 км {дождь} 10/6 300 м
[Sc diur, vesp As trans]
+11.1 +9.7 91 +11 +11 1014.2 739.3 2
15 27.06 С 1 25 км мгла {туман} 10/5 800 м
[Sc diur, vesp As op]
+12.8 +9.8 82 +13 +14 1015.9 740.1
18 27.06 С 2 25 км {туман} туман 8/5 800 м
[Cu med, cong Cc]
+19.9 +10.4 54 +22 +31 комфорт 1013.1 739.3 +9.5 +20.4

 

Местоположение метеостанции Toluca (Мексика): широта 19.28 долгота -99.68 высота над уровнем моря 2720 м.

В архиве по умолчанию представлена погода в Toluca за последнюю неделю. Архивные данные за месяц целиком и за предыдущие месяцы, начиная с января 2011 года, Вы можете получить, выбрав интересующий диапазон дат из раскрывающегося списка и нажав кнопку "Ввод!".

Внимание! Время в таблицах - всемирное. Для получения местного времени необходимо прибавить поправку, которая в Toluca равна -6 ч.

Смотрите также архив погоды в соседних городах и на ближайших метеорологических станциях:

Погода в Geografia Unam (Мексика) (53 км)
Погода в Mexico City (Мексика) (54 км)
Погода в Cuernavaca (Мексика) (65 км)
Погода в Zacatepec (Мексика) (84 км)
Погода в Pachuca (Мексика) (136 км)
Погода в Tlaxcala (Мексика) (150 км)
Погода в Tlaxcala Airport (Мексика) (151 км)
Погода в Morelia (Мексика) (156 км)
Погода в Puebla (Мексика) (162 км)
Погода в Queretaro (Мексика) (163 км)

Пояснения к столбцам:

Ветер - указаны скорость ветра в м/с - средняя за 10 мин, порывы в срок и между сроками (в фигурных скобках) и направление, откуда дует ветер: С - северный, СВ - северо-восточный, В - восточный, ЮВ - юго-восточный, Ю - южный, ЮЗ - юго-западный, З - западный, СЗ - северо-западный.
Видимость - горизонтальная дальность видимости в метрах или километрах. При видимости от 1 до 10 км при отсутствии осадков обычно наблюдается дымка, при ухудшении видимости до 1 км и менее - туман. В сухую погоду видимость может ухудшаться дымом, пылью или мглою.
Явления - указаны атмосферные явления, наблюдавшиеся в срок или в последний час перед сроком; фигурными скобками обозначены явления, наблюдавшиеся между сроками (за 1-3 часа до срока); квадратными скобками обозначены град или гололедные отложения с указанием их диаметра в мм.
Облачность - указаны через наклонную черту общая и нижняя облачность в баллах и высота нижней границы облаков в метрах; квадратными скобками обозначены формы облаков: Ci - перистые, Cs - перисто-слоистые, Cc - перисто-кучевые, Ac - высококучевые, As - высокослоистые, Sc - слоисто-кучевые, Ns - слоисто-дождевые, Cu - кучевые, Cb - кучево-дождевые. Подробнее классификацию облаков см. в Атласе облаков (PDF).
T - Температура воздуха - температура, измеренная на высоте 2 м над землей.
Td - Температура точки росы - температура, при понижении до которой содержащийся в воздухе водяной пар достигнет насыщения.
f - Относительная влажность воздуха - влажноcть воздуха, измеренная на высоте 2 м над землей.
Te - Эффективная температура - температура, которую ощущает одетый по сезону человек в тени. Характеристика душности погоды. При расчете учитывается влияние влажности воздуха и скорости ветра на теплоощущения человека.
Tes - Эффективная температура на солнце - температура, которую ощущает человек, с поправкой на солнечный нагрев. Характеристика знойности погоды. Зависит от высоты солнца над горизонтом, облачности и скорости ветра. Ночью, в пасмурную погоду, а также при ветре 12 м/с и более поправка равна нулю.
P - Атмосферное давление - приведенное к уровню моря атмосферное давление.
Po - Атмосферное давление - измеренное на уровне метеостанции атмосферное давление.
Tmin - Минимальная температура - минимум температуры воздуха на высоте 2 м над землей.
Tmax - Максимальная температура - максимум температуры воздуха на высоте 2 м над землей.
R - Количество осадков - Количество выпавших осадков за период времени, мм. При наведении курсора мыши на число - период времени, за который выпало указанное количество осадков.
R24 - Количество осадков - Количество выпавших осадков за 24 часа, мм.
S - Снежный покров - Высота снежного покрова, см. При наведении курсора мыши на число - состояние снежного покрова и степень покрытия местности в баллах.